| time (UTC) | temp F | wind direction | speed MPH | gust MPH | rain 1hr in | rain 24hr in | rain mn in | humidity % | barometer mb |
| 20260906085517 | 80 | 270 | 6.0 | 13.0 | 0.00 | 0.00 | 0.00 | 64 | 1014.6 |
| 20260906084518 | 80 | 282 | 4.0 | 10.0 | 0.00 | 0.00 | 0.00 | 65 | 1014.7 |
| 20260906083517 | 79 | 264 | 8.0 | 16.0 | 0.00 | 0.00 | 0.00 | 65 | 1014.7 |
| 20260906082518 | 78 | 267 | 9.0 | 15.0 | 0.00 | 0.00 | 0.00 | 66 | 1014.7 |
| 20260906081517 | 79 | 275 | 7.0 | 14.0 | 0.00 | 0.00 | 0.00 | 64 | 1014.7 |
| 20260906080517 | 79 | 277 | 8.0 | 12.0 | 0.00 | 0.00 | 0.00 | 62 | 1014.8 |
| 20260906075517 | 79 | 261 | 8.0 | 13.0 | 0.00 | 0.00 | 0.00 | 62 | 1014.8 |
| 20260906074517 | 79 | 317 | 4.0 | 9.0 | 0.00 | 0.00 | 0.00 | 62 | 1014.8 |
| 20260906073517 | 79 | 292 | 4.0 | 11.0 | 0.00 | 0.00 | 0.00 | 62 | 1014.8 |
| 20260906072517 | 79 | 287 | 4.0 | 11.0 | 0.00 | 0.00 | 0.00 | 62 | 1014.7 |
| 20260906071517 | 79 | 280 | 5.0 | 12.0 | 0.00 | 0.00 | 0.00 | 63 | 1014.6 |
| 20260906070518 | 79 | 308 | 2.0 | 12.0 | 0.00 | 0.00 | 0.00 | 62 | 1014.4 |
| 20260906065518 | 78 | 329 | 6.0 | 11.0 | 0.00 | 0.00 | 0.00 | 63 | 1014.3 |
| 20260906064537 | 78 | 323 | 6.0 | 17.0 | 0.00 | 0.00 | 0.00 | 64 | 1014.3 |
| 20260906063517 | 78 | 328 | 8.0 | 16.0 | 0.00 | 0.00 | 0.00 | 66 | 1014.3 |
| 20260906062517 | 77 | 304 | 5.0 | 10.0 | 0.00 | 0.00 | 0.00 | 68 | 1014.2 |
| 20260906061517 | 78 | 303 | 2.0 | 8.0 | 0.00 | 0.00 | 0.00 | 68 | 1014.1 |
| 20260906060517 | 78 | 319 | 2.0 | 8.0 | 0.00 | 0.00 | 0.00 | 68 | 1014.1 |
| 20260906055517 | 77 | 336 | 3.0 | 9.0 | 0.00 | 0.00 | 0.00 | 69 | 1014.0 |
| 20260906054538 | 77 | 325 | 3.0 | 12.0 | 0.00 | 0.00 | 0.00 | 68 | 1014.0 |
| 20260906053537 | 77 | 341 | 1.0 | 6.0 | 0.00 | 0.00 | 0.00 | 68 | 1014.0 |
| 20260906052517 | 77 | 255 | 1.0 | 7.0 | 0.00 | 0.00 | 0.00 | 69 | 1014.0 |
| 20260906051518 | 77 | 22 | 1.0 | 8.0 | 0.00 | 0.00 | 0.00 | 68 | 1013.9 |
| 20260906050537 | 76 | 339 | 5.0 | 11.0 | 0.00 | 0.00 | 0.00 | 68 | 1013.8 |
| 20260906045517 | 76 | 330 | 2.0 | 9.0 | 0.00 | 0.00 | 0.00 | 67 | 1013.7 |
| 20260906044518 | 76 | 346 | 4.0 | 11.0 | 0.00 | 0.00 | 0.00 | 67 | 1013.7 |
| 20260906043517 | 76 | 349 | 4.0 | 10.0 | 0.00 | 0.00 | 0.00 | 65 | 1013.4 |
| 20260906042517 | 76 | 355 | 5.0 | 10.0 | 0.00 | 0.00 | 0.00 | 65 | 1013.4 |
| 20260906041517 | 76 | 1 | 3.0 | 9.0 | 0.00 | 0.00 | 0.00 | 64 | 1013.3 |
| 20260906040517 | 76 | 351 | 6.0 | 11.0 | 0.00 | 0.00 | 0.00 | 64 | 1013.2 |
| 20260906035517 | 76 | 355 | 4.0 | 10.0 | 0.00 | 0.00 | 0.00 | 64 | 1013.1 |
| 20260906034518 | 76 | 358 | 5.0 | 9.0 | 0.00 | 0.00 | 0.00 | 63 | 1012.9 |
| 20260906033517 | 76 | 343 | 7.0 | 12.0 | 0.00 | 0.00 | 0.00 | 64 | 1012.9 |
| 20260906032518 | 77 | 346 | 6.0 | 12.0 | 0.00 | 0.00 | 0.00 | 63 | 1013.0 |
| 20260906031517 | 77 | 341 | 7.0 | 11.0 | 0.00 | 0.00 | 0.00 | 63 | 1013.0 |
| 20260906030517 | 77 | 342 | 7.0 | 10.0 | 0.00 | 0.00 | 0.00 | 61 | 1012.9 |
| 20260906025518 | 77 | 343 | 6.0 | 10.0 | 0.00 | 0.00 | 0.00 | 63 | 1012.9 |
| 20260906024517 | 77 | 347 | 6.0 | 11.0 | 0.00 | 0.00 | 0.00 | 62 | 1012.9 |
| 20260906023517 | 76 | 340 | 6.0 | 11.0 | 0.00 | 0.00 | 0.00 | 65 | 1012.9 |
| 20260906022517 | 77 | 348 | 3.0 | 6.0 | 0.00 | 0.00 | 0.00 | 63 | 1012.9 |
| 20260906021517 | 77 | 359 | 4.0 | 8.0 | 0.00 | 0.00 | 0.00 | 61 | 1012.8 |
| 20260906020517 | 77 | 352 | 6.0 | 10.0 | 0.00 | 0.00 | 0.00 | 61 | 1012.9 |
| 20260906015517 | 77 | 348 | 5.0 | 9.0 | 0.00 | 0.00 | 0.00 | 59 | 1012.9 |
| 20260906014517 | 77 | 348 | 6.0 | 12.0 | 0.00 | 0.00 | 0.00 | 60 | 1012.8 |
| 20260906013517 | 78 | 349 | 5.0 | 11.0 | 0.00 | 0.00 | 0.00 | 60 | 1012.9 |
| 20260906012517 | 78 | 346 | 5.0 | 10.0 | 0.00 | 0.00 | 0.00 | 61 | 1012.9 |
| 20260906011517 | 78 | 349 | 4.0 | 13.0 | 0.00 | 0.00 | 0.00 | 61 | 1012.9 |
| 20260906010537 | 78 | 352 | 4.0 | 10.0 | 0.00 | 0.00 | 0.00 | 61 | 1012.9 |
| 20260906005539 | 78 | 353 | 5.0 | 11.0 | 0.00 | 0.00 | 0.00 | 59 | 1013.0 |
| 20260906004517 | 78 | 344 | 6.0 | 10.0 | 0.00 | 0.00 | 0.00 | 61 | 1013.0 |
| 20260906003537 | 78 | 348 | 4.0 | 9.0 | 0.00 | 0.00 | 0.00 | 60 | 1012.9 |
| 20260906002517 | 78 | 350 | 5.0 | 10.0 | 0.00 | 0.00 | 0.00 | 59 | 1012.9 |
| 20260906001517 | 78 | 350 | 4.0 | 9.0 | 0.00 | 0.00 | 0.00 | 60 | 1012.9 |
| 20260906000538 | 78 | 342 | 4.0 | 9.0 | 0.00 | 0.00 | 0.00 | 60 | 1012.9 |
| 20260905235517 | 78 | 348 | 3.0 | 8.0 | 0.00 | 0.00 | 0.00 | 60 | 1013.0 |
| 20260905234517 | 79 | 352 | 3.0 | 9.0 | 0.00 | 0.00 | 0.00 | 60 | 1013.0 |
| 20260905233517 | 79 | 343 | 3.0 | 9.0 | 0.00 | 0.00 | 0.00 | 59 | 1013.0 |
| 20260905232517 | 79 | 354 | 4.0 | 9.0 | 0.00 | 0.00 | 0.00 | 60 | 1013.0 |
| 20260905231519 | 79 | 334 | 3.0 | 7.0 | 0.00 | 0.00 | 0.00 | 59 | 1012.9 |
| 20260905230517 | 79 | 348 | 2.0 | 9.0 | 0.00 | 0.00 | 0.00 | 59 | 1013.0 |
| 20260905225517 | 79 | 346 | 4.0 | 11.0 | 0.00 | 0.00 | 0.00 | 60 | 1013.0 |
| 20260905224517 | 79 | 356 | 3.0 | 11.0 | 0.00 | 0.00 | 0.00 | 60 | 1013.0 |
| 20260905223517 | 80 | 346 | 5.0 | 12.0 | 0.00 | 0.00 | 0.00 | 59 | 1013.0 |
| 20260905222517 | 80 | 344 | 5.0 | 10.0 | 0.00 | 0.00 | 0.00 | 58 | 1013.1 |
| 20260905221517 | 80 | 345 | 7.0 | 12.0 | 0.00 | 0.00 | 0.00 | 57 | 1013.2 |
| 20260905220518 | 80 | 359 | 3.0 | 9.0 | 0.00 | 0.00 | 0.00 | 58 | 1013.2 |
| 20260905215518 | 80 | 6 | 4.0 | 7.0 | 0.00 | 0.00 | 0.00 | 59 | 1013.2 |
| 20260905214517 | 80 | 338 | 3.0 | 11.0 | 0.00 | 0.00 | 0.00 | 59 | 1013.3 |
| 20260905213518 | 81 | 350 | 5.0 | 14.0 | 0.00 | 0.00 | 0.00 | 58 | 1013.3 |
| 20260905212517 | 81 | 347 | 5.0 | 11.0 | 0.00 | 0.00 | 0.00 | 57 | 1013.3 |
| 20260905211517 | 81 | 354 | 3.0 | 10.0 | 0.00 | 0.00 | 0.00 | 58 | 1013.4 |
| 20260905210539 | 80 | 342 | 5.0 | 15.0 | 0.00 | 0.00 | 0.00 | 58 | 1013.3 |
| 20260905205518 | 80 | 343 | 8.0 | 14.0 | 0.00 | 0.00 | 0.00 | 60 | 1013.3 |
| 20260905204518 | 81 | 337 | 5.0 | 12.0 | 0.00 | 0.00 | 0.00 | 59 | 1013.3 |
| 20260905203517 | 80 | 350 | 7.0 | 14.0 | 0.00 | 0.00 | 0.00 | 60 | 1013.3 |
| 20260905202518 | 80 | 343 | 8.0 | 17.0 | 0.00 | 0.00 | 0.00 | 61 | 1013.2 |
| 20260905201517 | 81 | 334 | 7.0 | 13.0 | 0.00 | 0.00 | 0.00 | 60 | 1013.2 |
| 20260905200517 | 80 | 307 | 3.0 | 10.0 | 0.00 | 0.00 | 0.00 | 62 | 1013.1 |
| 20260905195517 | 79 | 336 | 6.0 | 14.0 | 0.00 | 0.00 | 0.00 | 64 | 1013.1 |
| 20260905194538 | 79 | 341 | 6.0 | 13.0 | 0.00 | 0.00 | 0.00 | 64 | 1013.2 |
| 20260905193539 | 79 | 348 | 8.0 | 21.0 | 0.00 | 0.00 | 0.00 | 65 | 1013.2 |
| 20260905192517 | 79 | 344 | 6.0 | 12.0 | 0.00 | 0.00 | 0.00 | 65 | 1013.4 |
| 20260905191517 | 79 | 347 | 8.0 | 17.0 | 0.00 | 0.00 | 0.00 | 65 | 1013.3 |
| 20260905190558 | 79 | 346 | 6.0 | 18.0 | 0.00 | 0.00 | 0.00 | 66 | 1013.3 |
| 20260905185517 | 79 | 343 | 8.0 | 16.0 | 0.00 | 0.00 | 0.00 | 65 | 1013.2 |
| 20260905184517 | 80 | 341 | 6.0 | 13.0 | 0.00 | 0.00 | 0.00 | 64 | 1013.1 |
| 20260905183518 | 80 | 348 | 6.0 | 13.0 | 0.00 | 0.00 | 0.00 | 64 | 1013.0 |
| 20260905182518 | 80 | 339 | 8.0 | 17.0 | 0.00 | 0.00 | 0.00 | 65 | 1012.9 |
| 20260905181518 | 80 | 343 | 6.0 | 14.0 | 0.00 | 0.00 | 0.00 | 67 | 1012.9 |
| 20260905180517 | 81 | 339 | 8.0 | 17.0 | 0.00 | 0.00 | 0.00 | 64 | 1012.8 |
| 20260905175517 | 81 | 347 | 6.0 | 14.0 | 0.00 | 0.00 | 0.00 | 63 | 1012.6 |
| 20260905174518 | 80 | 353 | 6.0 | 12.0 | 0.00 | 0.00 | 0.00 | 65 | 1012.5 |
| 20260905173518 | 80 | 341 | 6.0 | 15.0 | 0.00 | 0.00 | 0.00 | 65 | 1012.5 |
| 20260905172518 | 80 | 348 | 6.0 | 13.0 | 0.00 | 0.00 | 0.00 | 65 | 1012.4 |
| 20260905171518 | 80 | 355 | 8.0 | 19.0 | 0.00 | 0.00 | 0.00 | 65 | 1012.4 |
| 20260905170517 | 81 | 332 | 8.0 | 17.0 | 0.00 | 0.00 | 0.00 | 64 | 1012.3 |
| 20260905165517 | 81 | 341 | 7.0 | 15.0 | 0.00 | 0.00 | 0.00 | 63 | 1012.3 |
| 20260905164517 | 81 | 349 | 5.0 | 14.0 | 0.00 | 0.00 | 0.00 | 62 | 1012.2 |
| 20260905163517 | 82 | 333 | 8.0 | 20.0 | 0.00 | 0.00 | 0.00 | 60 | 1012.1 |
| 20260905162518 | 82 | 348 | 4.0 | 11.0 | 0.00 | 0.00 | 0.00 | 60 | 1012.1 |
| 20260905161518 | 82 | 329 | 4.0 | 12.0 | 0.00 | 0.00 | 0.00 | 61 | 1012.0 |
| 20260905160538 | 83 | 312 | 4.0 | 12.0 | 0.00 | 0.00 | 0.00 | 61 | 1012.0 |
| 20260905155517 | 83 | 322 | 5.0 | 13.0 | 0.00 | 0.00 | 0.00 | 60 | 1011.9 |
| 20260905154517 | 83 | 299 | 4.0 | 12.0 | 0.00 | 0.00 | 0.00 | 60 | 1011.9 |
| 20260905153537 | 83 | 291 | 8.0 | 16.0 | 0.00 | 0.00 | 0.00 | 61 | 1011.9 |
| 20260905152517 | 83 | 286 | 5.0 | 12.0 | 0.00 | 0.00 | 0.00 | 62 | 1011.9 |
| 20260905151537 | 83 | 255 | 5.0 | 17.0 | 0.00 | 0.00 | 0.00 | 62 | 1011.9 |
| 20260905150517 | 83 | 281 | 7.0 | 20.0 | 0.00 | 0.00 | 0.00 | 62 | 1011.8 |
| 20260905145519 | 83 | 293 | 5.0 | 18.0 | 0.00 | 0.00 | 0.00 | 62 | 1011.7 |
| 20260905144518 | 83 | 285 | 5.0 | 14.0 | 0.00 | 0.00 | 0.00 | 63 | 1011.7 |
| 20260905143517 | 84 | 257 | 3.0 | 17.0 | 0.00 | 0.00 | 0.00 | 63 | 1011.7 |
| 20260905142518 | 84 | 303 | 4.0 | 13.0 | 0.00 | 0.00 | 0.00 | 62 | 1011.7 |
| 20260905141518 | 85 | 272 | 3.0 | 12.0 | 0.00 | 0.00 | 0.00 | 60 | 1011.7 |
| 20260905140517 | 85 | 273 | 8.0 | 18.0 | 0.00 | 0.00 | 0.00 | 58 | 1011.7 |
| 20260905135518 | 85 | 272 | 9.0 | 16.0 | 0.00 | 0.00 | 0.00 | 57 | 1011.7 |
| 20260905134518 | 85 | 264 | 5.0 | 15.0 | 0.00 | 0.00 | 0.00 | 58 | 1011.8 |
| 20260905133538 | 85 | 280 | 4.0 | 17.0 | 0.00 | 0.00 | 0.00 | 60 | 1011.9 |
| 20260905132518 | 85 | 278 | 5.0 | 14.0 | 0.00 | 0.00 | 0.00 | 59 | 1012.0 |
| 20260905131517 | 84 | 271 | 8.0 | 18.0 | 0.00 | 0.00 | 0.00 | 59 | 1012.0 |
| 20260905130537 | 84 | 277 | 7.0 | 17.0 | 0.00 | 0.00 | 0.00 | 60 | 1012.1 |
| 20260905125517 | 84 | 269 | 2.0 | 12.0 | 0.00 | 0.00 | 0.00 | 62 | 1012.1 |
| 20260905124516 | 85 | 282 | 4.0 | 10.0 | 0.00 | 0.00 | 0.00 | 61 | 1012.1 |
| 20260905123538 | 84 | 324 | 3.0 | 12.0 | 0.00 | 0.00 | 0.00 | 62 | 1012.2 |
| 20260905122537 | 84 | 276 | 5.0 | 14.0 | 0.00 | 0.00 | 0.00 | 62 | 1012.2 |
| 20260905120517 | 83 | 284 | 5.0 | 12.0 | 0.00 | 0.00 | 0.00 | 63 | 1012.2 |
| 20260905115537 | 83 | 299 | 3.0 | 11.0 | 0.00 | 0.00 | 0.00 | 63 | 1012.3 |
| 20260905114518 | 83 | 293 | 4.0 | 13.0 | 0.00 | 0.00 | 0.00 | 62 | 1012.3 |
| 20260905113517 | 84 | 297 | 4.0 | 11.0 | 0.00 | 0.00 | 0.00 | 62 | 1012.4 |
| 20260905112538 | 83 | 291 | 4.0 | 15.0 | 0.00 | 0.00 | 0.00 | 63 | 1012.4 |
| 20260905111517 | 83 | 300 | 6.0 | 18.0 | 0.00 | 0.00 | 0.00 | 63 | 1012.5 |
| 20260905110517 | 82 | 275 | 5.0 | 17.0 | 0.00 | 0.00 | 0.00 | 64 | 1012.5 |
| 20260905105516 | 82 | 295 | 6.0 | 14.0 | 0.00 | 0.00 | 0.00 | 65 | 1012.5 |
| 20260905104517 | 83 | 307 | 3.0 | 12.0 | 0.00 | 0.00 | 0.00 | 65 | 1012.6 |
| 20260905103517 | 81 | 277 | 6.0 | 17.0 | 0.00 | 0.00 | 0.00 | 67 | 1012.6 |
| 20260905102516 | 81 | 272 | 7.0 | 14.0 | 0.00 | 0.00 | 0.00 | 67 | 1012.7 |
| 20260905101518 | 81 | 275 | 5.0 | 13.0 | 0.00 | 0.00 | 0.00 | 67 | 1012.7 |
| 20260905100517 | 81 | 293 | 5.0 | 12.0 | 0.00 | 0.00 | 0.00 | 67 | 1012.7 |
| 20260905095517 | 81 | 286 | 4.0 | 12.0 | 0.00 | 0.00 | 0.00 | 69 | 1012.6 |
| 20260905094516 | 81 | 290 | 4.0 | 13.0 | 0.00 | 0.00 | 0.00 | 68 | 1012.7 |
| 20260905093517 | 80 | 279 | 3.0 | 14.0 | 0.00 | 0.00 | 0.00 | 68 | 1012.8 |
| 20260905092517 | 80 | 275 | 5.0 | 14.0 | 0.00 | 0.00 | 0.00 | 68 | 1012.8 |
| 20260905091518 | 79 | 303 | 4.0 | 17.0 | 0.00 | 0.00 | 0.00 | 69 | 1012.9 |
| 20260905090518 | 79 | 270 | 7.0 | 14.0 | 0.00 | 0.00 | 0.00 | 69 | 1012.9 |